Home   Weather   Senftenberg   Past weeks

Flag for Germany Past Weather in Senftenberg, Brandenburg, Germany — Yesterday and Last 2 Weeks

Now
41 °F

Clear.


Feels Like: 38 °F
Forecast: 35 / 52 °F
Wind: 5 mph from Southwest

Location: Dresden-Klotzsche

Current Time: Apr 29, 2017 at 12:08:59 am

Latest Report: Apr 28, 2017 at 11:20 pm


Visibility: 10 mi

Pressure: 29.95 "Hg

Humidity: 81%

Dew Point: 36 °F

Location of SenftenbergLocation

Past Weather in Senftenberg — Graph

°F

Senftenberg Temperature Yesterday

Maximum temperature yesterday: 50 °F (at 3:50 pm)
Minimum temperature yesterday: 36 °F (at 5:20 am)
Average temperature yesterday: 43 °F

High & Low Weather Summary for the Past Weeks

 TemperatureHumidityPressure
High57 °F (Apr 24, 4:20 pm)100% (Apr 18, 4:50 am)30.54 "Hg (Apr 18, 4:50 am)
Low28 °F (Apr 19, 5:20 am)38% (Apr 24, 3:20 pm)29.59 "Hg (Apr 25, 5:50 am)
Average43 °F71%30.04 "Hg
* Reported Apr 13 10:20 pm — Apr 28 10:50 pm, Senftenberg, Weather by CustomWeather, © 2017

Note: Actual official high and low records may vary slightly from our data, if they occured in-between our weather recording intervals... More about our weather records

Advertising

Senftenberg Weather History for the Previous 24 Hours

Scroll right to see more
 ConditionsComfort  
Time TempWeatherWind HumidityBarometerVisibility
10:50 pm
Fri, Apr 28
43 °FClear.3 mph76%29.95 "Hg10 mi
10:20 pm43 °FClear.3 mph76%29.92 "Hg10 mi
9:50 pm45 °FClear.3 mph71%29.92 "Hg10 mi
9:20 pm45 °FClear.2 mph71%29.92 "Hg10 mi
8:50 pm45 °FPassing clouds.2 mph71%29.92 "HgN/A
8:20 pm45 °FSprinkles. Broken clouds.2 mph71%29.92 "HgN/A
7:50 pm45 °FBroken clouds.3 mph76%29.89 "HgN/A
7:20 pm45 °FBroken clouds.6 mph71%29.89 "HgN/A
6:50 pm45 °FBroken clouds.7 mph76%29.89 "HgN/A
6:20 pm46 °FScattered showers. Broken clouds.7 mph66%29.89 "HgN/A
5:50 pm46 °FSprinkles. Partly sunny.9 mph66%29.89 "HgN/A
5:20 pm48 °FScattered showers. Partly sunny.6 mph62%29.89 "HgN/A
4:50 pm48 °FBroken clouds.9 mph58%29.89 "HgN/A
4:20 pm48 °FBroken clouds.5 mph58%29.89 "HgN/A
3:50 pm50 °FBroken clouds.7 mph54%29.86 "HgN/A
3:20 pm48 °FBroken clouds.7 mph54%29.86 "HgN/A
2:50 pm48 °FPartly sunny.6 mph54%29.86 "HgN/A
2:20 pm48 °FBroken clouds.8 mph54%29.86 "HgN/A
1:50 pm48 °FBroken clouds.8 mph58%29.86 "HgN/A
1:20 pm48 °FBroken clouds.9 mph58%29.86 "HgN/A
12:50 pm46 °FBroken clouds.9 mph66%29.86 "HgN/A
12:20 pm46 °FMore clouds than sun.7 mph66%29.86 "HgN/A
11:50 am46 °FMore clouds than sun.6 mph66%29.89 "HgN/A
11:20 am45 °FOvercast.6 mph71%29.89 "HgN/A
10:50 am45 °FOvercast.7 mph71%29.89 "HgN/A
9:50 am43 °FOvercast.2 mph81%29.89 "HgN/A
9:20 am43 °FSunny.2 mph81%29.89 "Hg10 mi
8:50 am41 °FSunny.1 mph81%29.89 "Hg10 mi
8:20 am41 °FSunny.1 mph81%29.89 "Hg10 mi
7:50 am39 °FSunny.2 mph87%29.89 "Hg10 mi
7:20 am37 °FSunny.2 mph87%29.89 "Hg10 mi
6:50 am36 °FSunny.5 mph93%29.89 "Hg10 mi
6:20 am36 °FSunny.2 mph93%29.89 "Hg10 mi
5:50 am36 °FSunny.3 mph93%29.86 "Hg10 mi
5:20 am36 °FClear.2 mph93%29.89 "Hg10 mi
4:50 am37 °FClear.2 mph87%29.89 "Hg10 mi
4:20 am37 °FClear.3 mph87%29.89 "Hg10 mi
3:50 am37 °FClear.2 mph81%29.89 "Hg10 mi
3:20 am39 °FClear.1 mph81%29.92 "Hg10 mi
2:50 am37 °FClear.3 mph87%29.92 "Hg10 mi
2:20 am37 °FClear.2 mph87%29.92 "Hg10 mi
1:50 am39 °FClear.3 mph81%29.92 "Hg10 mi
1:20 am39 °FClear.3 mph81%29.92 "Hg10 mi
12:50 am39 °FClear.2 mph75%29.92 "Hg10 mi
12:20 am41 °FClear.1 mph70%29.95 "Hg10 mi
Weather by CustomWeather, © 2017

See weather overviewHow to use our weather pages